Time,TemperatureF,DewpointF,PressureIn,WindDirection,WindDirectionDegrees,WindSpeedMPH,WindSpeedGustMPH,Humidity,HourlyPrecipIn,Conditions,Clouds,dailyrainin,SoftwareType,DateUTC
2013-08-22 00:01:00,68.7,67.5,30.07,WSW,245,0.0,0.0,96,0.00,,,0.00,WeatherCatV1.20B785,2013-08-22 05:01:00,
2013-08-22 00:06:00,68.6,67.4,30.07,WSW,245,0.0,0.0,96,0.00,,,0.00,WeatherCatV1.20B785,2013-08-22 05:06:00,
2013-08-22 00:11:00,68.5,67.3,30.07,WSW,245,0.0,0.0,96,0.00,,,0.00,WeatherCatV1.20B785,2013-08-22 05:11:00,
2013-08-22 00:16:00,68.4,67.2,30.07,WSW,245,0.0,0.0,96,0.00,,,0.00,WeatherCatV1.20B785,2013-08-22 05:16:00,
2013-08-22 00:21:00,68.3,67.1,30.07,WSW,245,0.0,0.0,96,0.00,,,0.00,WeatherCatV1.20B785,2013-08-22 05:21:00,
2013-08-22 00:26:00,68.3,67.1,30.07,WSW,245,0.0,0.0,96,0.00,,,0.00,WeatherCatV1.20B785,2013-08-22 05:26:00,
2013-08-22 00:31:00,68.2,67.0,30.07,WSW,245,0.0,0.0,96,0.00,,,0.00,WeatherCatV1.20B785,2013-08-22 05:31:00,
2013-08-22 00:36:00,68.1,66.9,30.07,WSW,245,0.0,0.0,96,0.00,,,0.00,WeatherCatV1.20B785,2013-08-22 05:36:00,
2013-08-22 00:41:00,68.0,66.8,30.07,WSW,245,0.0,0.0,96,0.00,,,0.00,WeatherCatV1.20B785,2013-08-22 05:41:00,
2013-08-22 00:46:00,67.9,66.7,30.07,WSW,245,0.0,0.0,96,0.00,,,0.00,WeatherCatV1.20B785,2013-08-22 05:46:00,
2013-08-22 00:51:00,67.9,66.7,30.07,WSW,245,0.0,0.0,96,0.00,,,0.00,WeatherCatV1.20B785,2013-08-22 05:51:00,
2013-08-22 00:56:00,67.8,66.9,30.07,WSW,245,0.0,0.0,97,0.00,,,0.00,WeatherCatV1.20B785,2013-08-22 05:56:00,
2013-08-22 01:01:00,67.8,66.9,30.07,WSW,245,0.0,0.0,97,0.00,,,0.00,WeatherCatV1.20B785,2013-08-22 06:01:00,
2013-08-22 01:30:00,67.5,66.6,30.08,WSW,245,0.0,0.0,97,0.00,,,0.00,WeatherCatV1.20B785,2013-08-22 06:30:00,
2013-08-22 01:35:00,67.4,66.5,30.07,WSW,245,0.0,0.0,97,0.00,,,0.00,WeatherCatV1.20B785,2013-08-22 06:35:00,
2013-08-22 01:42:00,67.3,66.4,30.08,WSW,245,0.0,0.0,97,0.00,,,0.00,WeatherCatV1.20B785,2013-08-22 06:42:00,
2013-08-22 01:47:00,67.2,66.3,30.08,WSW,245,0.0,0.0,97,0.00,,,0.00,WeatherCatV1.20B785,2013-08-22 06:47:00,
2013-08-22 01:52:00,67.2,66.3,30.08,WSW,245,0.0,0.0,97,0.00,,,0.00,WeatherCatV1.20B785,2013-08-22 06:52:00,
2013-08-22 01:57:00,67.1,66.2,30.08,WSW,245,0.0,0.0,97,0.00,,,0.00,WeatherCatV1.20B785,2013-08-22 06:57:00,
2013-08-22 02:02:00,67.0,66.1,30.08,WSW,245,0.0,0.0,97,0.00,,,0.00,WeatherCatV1.20B785,2013-08-22 07:02:00,
2013-08-22 02:07:00,67.0,66.1,30.07,WSW,245,0.0,0.0,97,0.00,,,0.00,WeatherCatV1.20B785,2013-08-22 07:07:00,
2013-08-22 02:12:00,66.9,66.0,30.08,WSW,245,0.0,0.0,97,0.00,,,0.00,WeatherCatV1.20B785,2013-08-22 07:12:00,
2013-08-22 02:17:00,66.8,65.9,30.07,WSW,245,0.0,0.0,97,0.00,,,0.00,WeatherCatV1.20B785,2013-08-22 07:17:00,
2013-08-22 02:22:00,66.7,65.8,30.08,WSW,245,0.0,0.0,97,0.00,,,0.00,WeatherCatV1.20B785,2013-08-22 07:22:00,
2013-08-22 02:27:00,66.7,65.8,30.08,WSW,245,0.0,0.0,97,0.00,,,0.00,WeatherCatV1.20B785,2013-08-22 07:27:00,
2013-08-22 02:32:00,66.6,65.7,30.07,WSW,245,0.0,0.0,97,0.00,,,0.00,WeatherCatV1.20B785,2013-08-22 07:32:00,
2013-08-22 02:37:00,66.5,65.6,30.08,WSW,245,0.0,0.0,97,0.00,,,0.00,WeatherCatV1.20B785,2013-08-22 07:37:00,
2013-08-22 02:42:00,66.5,65.6,30.08,WSW,245,0.0,0.0,97,0.00,,,0.00,WeatherCatV1.20B785,2013-08-22 07:42:00,
2013-08-22 02:47:00,66.4,65.5,30.08,WSW,245,0.0,0.0,97,0.00,,,0.00,WeatherCatV1.20B785,2013-08-22 07:47:00,
2013-08-22 02:52:00,66.3,65.4,30.08,WSW,245,0.0,0.0,97,0.00,,,0.00,WeatherCatV1.20B785,2013-08-22 07:52:00,
2013-08-22 02:57:00,66.3,65.4,30.08,WSW,245,0.0,0.0,97,0.00,,,0.00,WeatherCatV1.20B785,2013-08-22 07:57:00,
2013-08-22 03:02:00,66.1,65.2,30.08,WSW,245,0.0,0.0,97,0.00,,,0.00,WeatherCatV1.20B785,2013-08-22 08:02:00,
2013-08-22 03:07:00,66.1,65.2,30.08,WSW,245,0.0,0.0,97,0.00,,,0.00,WeatherCatV1.20B785,2013-08-22 08:07:00,
2013-08-22 03:12:00,66.0,65.1,30.08,WSW,245,0.0,0.0,97,0.00,,,0.00,WeatherCatV1.20B785,2013-08-22 08:12:00,
2013-08-22 03:17:00,65.9,65.0,30.08,WSW,245,0.0,0.0,97,0.00,,,0.00,WeatherCatV1.20B785,2013-08-22 08:17:00,
2013-08-22 03:22:00,65.8,65.2,30.08,WSW,245,0.0,0.0,98,0.00,,,0.00,WeatherCatV1.20B785,2013-08-22 08:22:00,
2013-08-22 03:27:00,65.8,64.9,30.08,WSW,245,0.0,0.0,97,0.00,,,0.00,WeatherCatV1.20B785,2013-08-22 08:27:00,
2013-08-22 03:32:00,65.7,64.8,30.08,WSW,245,0.0,0.0,97,0.00,,,0.00,WeatherCatV1.20B785,2013-08-22 08:32:00,
2013-08-22 03:37:00,65.6,64.7,30.08,WSW,245,0.0,0.0,97,0.00,,,0.00,WeatherCatV1.20B785,2013-08-22 08:37:00,
2013-08-22 03:42:00,65.5,64.9,30.08,WSW,245,0.0,0.0,98,0.00,,,0.00,WeatherCatV1.20B785,2013-08-22 08:42:00,
2013-08-22 03:47:00,65.5,64.9,30.08,WSW,245,0.0,0.0,98,0.00,,,0.00,WeatherCatV1.20B785,2013-08-22 08:47:00,
2013-08-22 03:52:00,65.5,64.9,30.08,WSW,245,0.0,0.0,98,0.00,,,0.00,WeatherCatV1.20B785,2013-08-22 08:52:00,
2013-08-22 03:57:00,65.4,64.8,30.07,WSW,245,0.0,0.0,98,0.00,,,0.00,WeatherCatV1.20B785,2013-08-22 08:57:00,
2013-08-22 04:02:00,65.4,64.8,30.08,WSW,245,0.0,0.0,98,0.00,,,0.00,WeatherCatV1.20B785,2013-08-22 09:02:00,
2013-08-22 04:07:00,65.3,64.7,30.08,WSW,245,0.0,0.0,98,0.00,,,0.00,WeatherCatV1.20B785,2013-08-22 09:07:00,
2013-08-22 04:12:00,65.3,64.7,30.08,WSW,245,0.0,0.0,98,0.00,,,0.00,WeatherCatV1.20B785,2013-08-22 09:12:00,
2013-08-22 04:17:00,65.2,64.6,30.07,WSW,245,0.0,0.0,98,0.00,,,0.00,WeatherCatV1.20B785,2013-08-22 09:17:00,
2013-08-22 04:22:00,65.1,64.5,30.07,WSW,245,0.0,0.0,98,0.00,,,0.00,WeatherCatV1.20B785,2013-08-22 09:22:00,
2013-08-22 04:27:00,65.1,64.5,30.07,WSW,245,0.0,0.0,98,0.00,,,0.00,WeatherCatV1.20B785,2013-08-22 09:27:00,
2013-08-22 04:32:00,65.2,64.6,30.07,WSW,245,0.0,0.0,98,0.00,,,0.00,WeatherCatV1.20B785,2013-08-22 09:32:00,
2013-08-22 04:37:00,65.2,64.6,30.07,WSW,245,0.0,0.0,98,0.00,,,0.00,WeatherCatV1.20B785,2013-08-22 09:37:00,
2013-08-22 04:42:00,65.2,64.6,30.07,WSW,245,0.0,0.0,98,0.00,,,0.00,WeatherCatV1.20B785,2013-08-22 09:42:00,
2013-08-22 04:47:00,65.2,64.6,30.07,WSW,245,0.0,0.0,98,0.00,,,0.00,WeatherCatV1.20B785,2013-08-22 09:47:00,
2013-08-22 04:52:00,65.2,64.6,30.07,WSW,245,0.0,0.0,98,0.00,,,0.00,WeatherCatV1.20B785,2013-08-22 09:52:00,
2013-08-22 04:57:00,65.2,64.6,30.07,WSW,245,0.0,0.0,98,0.00,,,0.00,WeatherCatV1.20B785,2013-08-22 09:57:00,
2013-08-22 05:02:00,65.2,64.6,30.07,WSW,245,0.0,0.0,98,0.00,,,0.00,WeatherCatV1.20B785,2013-08-22 10:02:00,
2013-08-22 05:07:00,65.1,64.5,30.07,WSW,245,0.0,0.0,98,0.00,,,0.00,WeatherCatV1.20B785,2013-08-22 10:07:00,
2013-08-22 05:12:00,65.1,64.5,30.07,WSW,245,0.0,0.0,98,0.00,,,0.00,WeatherCatV1.20B785,2013-08-22 10:12:00,
2013-08-22 05:17:00,65.0,64.4,30.07,WSW,245,0.0,0.0,98,0.00,,,0.00,WeatherCatV1.20B785,2013-08-22 10:17:00,
2013-08-22 05:22:00,65.1,64.5,30.07,WSW,245,0.0,0.0,98,0.00,,,0.00,WeatherCatV1.20B785,2013-08-22 10:22:00,
2013-08-22 05:27:00,65.0,64.4,30.07,WSW,245,0.0,0.0,98,0.00,,,0.00,WeatherCatV1.20B785,2013-08-22 10:27:00,
2013-08-22 05:32:00,64.9,64.3,30.07,WSW,245,0.0,0.0,98,0.00,,,0.00,WeatherCatV1.20B785,2013-08-22 10:32:00,
2013-08-22 05:37:00,64.9,64.3,30.07,WSW,245,0.0,0.0,98,0.00,,,0.00,WeatherCatV1.20B785,2013-08-22 10:37:00,
2013-08-22 05:42:00,64.8,64.2,30.07,WSW,245,0.0,0.0,98,0.00,,,0.00,WeatherCatV1.20B785,2013-08-22 10:42:00,
2013-08-22 05:47:00,64.8,64.2,30.07,WSW,245,0.0,0.0,98,0.00,,,0.00,WeatherCatV1.20B785,2013-08-22 10:47:00,
2013-08-22 05:50:00,64.8,64.2,30.07,WSW,244,0.0,0.0,98,0.00,,,0.00,WeatherCatV1.20B785,2013-08-22 10:50:00,
2013-08-22 05:55:00,64.7,64.1,30.07,WSW,244,0.0,0.0,98,0.00,,,0.00,WeatherCatV1.20B785,2013-08-22 10:55:00,
2013-08-22 06:00:00,64.6,64.0,30.08,WSW,244,0.0,0.0,98,0.00,,,0.00,WeatherCatV1.20B785,2013-08-22 11:00:00,
2013-08-22 06:05:00,64.5,63.9,30.08,WSW,244,0.0,0.0,98,0.00,,,0.00,WeatherCatV1.20B785,2013-08-22 11:05:00,
2013-08-22 06:10:00,64.5,63.9,30.08,WSW,244,0.0,0.0,98,0.00,,,0.00,WeatherCatV1.20B785,2013-08-22 11:10:00,
2013-08-22 06:15:00,64.4,63.8,30.09,WSW,244,0.0,0.0,98,0.00,,,0.00,WeatherCatV1.20B785,2013-08-22 11:15:00,
2013-08-22 06:20:00,64.4,63.8,30.09,WSW,244,0.0,0.0,98,0.00,,,0.00,WeatherCatV1.20B785,2013-08-22 11:20:00,
2013-08-22 06:25:00,64.4,63.8,30.09,WSW,244,0.0,0.0,98,0.00,,,0.00,WeatherCatV1.20B785,2013-08-22 11:25:00,
2013-08-22 06:30:00,64.3,63.7,30.09,WSW,244,0.0,0.0,98,0.00,,,0.00,WeatherCatV1.20B785,2013-08-22 11:30:00,
2013-08-22 06:35:00,64.2,63.6,30.09,WSW,244,0.0,0.0,98,0.00,,,0.00,WeatherCatV1.20B785,2013-08-22 11:35:00,
2013-08-22 06:40:00,64.1,63.5,30.09,WSW,244,0.0,0.0,98,0.00,,,0.00,WeatherCatV1.20B785,2013-08-22 11:40:00,
2013-08-22 06:45:00,64.1,63.5,30.09,WSW,244,0.0,0.0,98,0.00,,,0.00,WeatherCatV1.20B785,2013-08-22 11:45:00,
2013-08-22 06:50:00,64.0,63.4,30.09,WSW,244,0.0,0.0,98,0.00,,,0.00,WeatherCatV1.20B785,2013-08-22 11:50:00,
2013-08-22 06:55:00,64.0,63.4,30.09,WSW,244,0.0,0.0,98,0.00,,,0.00,WeatherCatV1.20B785,2013-08-22 11:55:00,
2013-08-22 07:00:00,64.0,63.4,30.09,WSW,244,0.0,0.0,98,0.00,,,0.00,WeatherCatV1.20B785,2013-08-22 12:00:00,
2013-08-22 07:05:00,63.9,63.3,30.09,WSW,244,0.0,0.0,98,0.00,,,0.00,WeatherCatV1.20B785,2013-08-22 12:05:00,
2013-08-22 07:10:00,63.9,63.3,30.09,WSW,244,0.0,0.0,98,0.00,,,0.00,WeatherCatV1.20B785,2013-08-22 12:10:00,
2013-08-22 07:15:00,63.9,63.6,30.10,WSW,244,0.0,0.0,99,0.00,,,0.00,WeatherCatV1.20B785,2013-08-22 12:15:00,
2013-08-22 07:29:00,64.1,63.8,30.10,WSW,244,0.0,0.0,99,0.00,,,0.00,WeatherCatV1.20B785,2013-08-22 12:29:00,
2013-08-22 07:34:00,64.9,64.6,30.10,WSW,245,0.0,0.0,99,0.00,,,0.00,WeatherCatV1.20B785,2013-08-22 12:34:00,
2013-08-22 07:39:00,65.4,65.1,30.11,WSW,245,0.0,0.0,99,0.00,,,0.00,WeatherCatV1.20B785,2013-08-22 12:39:00,
2013-08-22 07:44:00,66.0,65.7,30.11,WSW,245,0.0,0.0,99,0.00,,,0.00,WeatherCatV1.20B785,2013-08-22 12:44:00,
2013-08-22 07:49:00,66.8,66.8,30.11,WSW,245,0.0,0.0,100,0.00,,,0.00,WeatherCatV1.20B785,2013-08-22 12:49:00,
2013-08-22 07:54:00,67.4,67.4,30.11,NNW,334,0.0,0.0,100,0.00,,,0.00,WeatherCatV1.20B785,2013-08-22 12:54:00,
2013-08-22 07:59:00,68.4,68.4,30.11,NNW,334,0.0,0.0,100,0.00,,,0.00,WeatherCatV1.20B785,2013-08-22 12:59:00,
2013-08-22 08:00:00,68.5,68.5,30.11,NNW,334,0.0,0.0,100,0.00,,,0.00,WeatherCatV1.20B785,2013-08-22 13:00:00,
2013-08-22 08:05:00,69.0,69.0,30.11,NNW,334,0.0,0.0,100,0.00,,,0.00,WeatherCatV1.20B785,2013-08-22 13:05:00,
2013-08-22 08:10:00,69.5,69.5,30.12,NNW,334,0.0,0.0,100,0.00,,,0.00,WeatherCatV1.20B785,2013-08-22 13:10:00,
2013-08-22 08:15:00,69.9,69.9,30.12,NNW,335,0.0,1.0,100,0.00,,,0.00,WeatherCatV1.20B785,2013-08-22 13:15:00,
2013-08-22 08:20:00,70.1,70.1,30.12,NNW,335,0.0,0.0,100,0.00,,,0.00,WeatherCatV1.20B785,2013-08-22 13:20:00,
2013-08-22 08:25:00,70.3,70.3,30.12,SE,128,0.0,0.0,100,0.00,,,0.00,WeatherCatV1.20B785,2013-08-22 13:25:00,
2013-08-22 08:30:00,70.4,70.4,30.12,SE,128,0.0,0.0,100,0.00,,,0.00,WeatherCatV1.20B785,2013-08-22 13:30:00,
2013-08-22 08:35:00,70.7,70.7,30.11,SE,128,0.0,1.0,100,0.00,,,0.00,WeatherCatV1.20B785,2013-08-22 13:35:00,
2013-08-22 08:40:00,71.0,71.0,30.12,SE,128,0.0,0.0,100,0.00,,,0.00,WeatherCatV1.20B785,2013-08-22 13:40:00,
2013-08-22 08:45:00,71.2,70.9,30.12,SE,128,0.0,1.0,99,0.00,,,0.00,WeatherCatV1.20B785,2013-08-22 13:45:00,
2013-08-22 08:50:00,71.6,71.3,30.11,SE,128,0.0,0.0,99,0.00,,,0.00,WeatherCatV1.20B785,2013-08-22 13:50:00,
2013-08-22 08:55:00,71.8,71.5,30.12,SE,128,0.0,0.0,99,0.00,,,0.00,WeatherCatV1.20B785,2013-08-22 13:55:00,
2013-08-22 09:00:00,72.2,71.9,30.11,SE,128,0.0,1.0,99,0.00,,,0.00,WeatherCatV1.20B785,2013-08-22 14:00:00,
2013-08-22 09:05:00,72.5,72.2,30.11,SE,128,1.0,1.0,99,0.00,,,0.00,WeatherCatV1.20B785,2013-08-22 14:05:00,
2013-08-22 09:10:00,72.9,72.3,30.11,SE,128,1.0,2.0,98,0.00,,,0.00,WeatherCatV1.20B785,2013-08-22 14:10:00,
2013-08-22 09:15:00,73.2,72.6,30.11,SE,128,0.0,0.0,98,0.00,,,0.00,WeatherCatV1.20B785,2013-08-22 14:15:00,
2013-08-22 09:20:00,73.8,73.2,30.11,SE,129,0.0,1.0,98,0.00,,,0.00,WeatherCatV1.20B785,2013-08-22 14:20:00,
2013-08-22 09:25:00,74.2,73.3,30.11,SE,128,0.0,1.0,97,0.00,,,0.00,WeatherCatV1.20B785,2013-08-22 14:25:00,
2013-08-22 09:30:00,74.7,73.8,30.11,SE,128,0.0,0.0,97,0.00,,,0.00,WeatherCatV1.20B785,2013-08-22 14:30:00,
2013-08-22 09:35:00,75.2,74.0,30.10,SE,128,0.0,1.0,96,0.00,,,0.00,WeatherCatV1.20B785,2013-08-22 14:35:00,
2013-08-22 09:40:00,75.7,74.2,30.10,SE,128,0.0,1.0,95,0.00,,,0.00,WeatherCatV1.20B785,2013-08-22 14:40:00,
2013-08-22 09:45:00,76.3,74.4,30.10,SW,232,3.0,3.0,94,0.00,,,0.00,WeatherCatV1.20B785,2013-08-22 14:45:00,
2013-08-22 09:50:00,76.9,74.7,30.10,SSW,194,2.0,3.0,93,0.00,,,0.00,WeatherCatV1.20B785,2013-08-22 14:50:00,
2013-08-22 09:55:00,77.5,74.7,30.10,SSE,159,3.0,5.0,91,0.00,,,0.00,WeatherCatV1.20B785,2013-08-22 14:55:00,
2013-08-22 10:00:00,78.0,74.5,30.10,SW,219,1.0,4.0,89,0.00,,,0.00,WeatherCatV1.20B785,2013-08-22 15:00:00,
2013-08-22 10:05:00,78.6,74.7,30.10,SW,228,3.0,3.0,88,0.00,,,0.00,WeatherCatV1.20B785,2013-08-22 15:05:00,
2013-08-22 10:10:00,79.1,74.9,30.10,SW,223,0.0,3.0,87,0.00,,,0.00,WeatherCatV1.20B785,2013-08-22 15:10:00,
2013-08-22 10:15:00,79.7,75.1,30.10,West,268,0.0,2.0,86,0.00,,,0.00,WeatherCatV1.20B785,2013-08-22 15:15:00,
2013-08-22 10:20:00,80.1,74.4,30.10,SSW,204,1.0,5.0,83,0.00,,,0.00,WeatherCatV1.20B785,2013-08-22 15:20:00,
2013-08-22 10:25:00,80.6,74.6,30.10,South,179,3.0,3.0,82,0.00,,,0.00,WeatherCatV1.20B785,2013-08-22 15:25:00,
2013-08-22 10:30:00,81.1,74.7,30.10,SSE,166,4.0,4.0,81,0.00,,,0.00,WeatherCatV1.20B785,2013-08-22 15:30:00,
2013-08-22 10:35:00,81.6,74.8,30.10,SSW,209,2.0,4.0,80,0.00,,,0.00,WeatherCatV1.20B785,2013-08-22 15:35:00,
2013-08-22 10:40:00,82.0,74.8,30.10,SE,138,2.0,3.0,79,0.00,,,0.00,WeatherCatV1.20B785,2013-08-22 15:40:00,
2013-08-22 10:45:00,82.2,73.5,30.10,South,171,3.0,5.0,75,0.00,,,0.00,WeatherCatV1.20B785,2013-08-22 15:45:00,
2013-08-22 10:50:00,82.4,73.7,30.10,SSE,162,1.0,2.0,75,0.00,,,0.00,WeatherCatV1.20B785,2013-08-22 15:50:00,
2013-08-22 10:55:00,82.6,73.0,30.10,SSW,200,0.0,2.0,73,0.00,,,0.00,WeatherCatV1.20B785,2013-08-22 15:55:00,
2013-08-22 11:00:00,83.0,73.8,30.10,West,269,2.0,4.0,74,0.00,,,0.00,WeatherCatV1.20B785,2013-08-22 16:00:00,
2013-08-22 11:05:00,83.4,73.8,30.10,SE,139,2.0,3.0,73,0.00,,,0.00,WeatherCatV1.20B785,2013-08-22 16:05:00,
2013-08-22 11:10:00,83.8,73.4,30.10,SW,217,2.0,4.0,71,0.00,,,0.00,WeatherCatV1.20B785,2013-08-22 16:10:00,
2013-08-22 11:15:00,84.0,72.7,30.10,NNW,344,3.0,3.0,69,0.00,,,0.00,WeatherCatV1.20B785,2013-08-22 16:15:00,
2013-08-22 11:20:00,84.3,73.0,30.10,West,266,1.0,3.0,69,0.00,,,0.00,WeatherCatV1.20B785,2013-08-22 16:20:00,
2013-08-22 11:25:00,84.5,72.8,30.10,West,273,1.0,3.0,68,0.00,,,0.00,WeatherCatV1.20B785,2013-08-22 16:25:00,
2013-08-22 11:30:00,84.5,72.3,30.10,West,268,0.0,2.0,67,0.00,,,0.00,WeatherCatV1.20B785,2013-08-22 16:30:00,
2013-08-22 11:35:00,84.8,73.5,30.10,SW,224,0.0,2.0,69,0.00,,,0.00,WeatherCatV1.20B785,2013-08-22 16:35:00,
2013-08-22 11:40:00,85.0,73.2,30.09,West,278,1.0,2.0,68,0.00,,,0.00,WeatherCatV1.20B785,2013-08-22 16:40:00,
2013-08-22 11:45:00,85.2,73.0,30.09,West,263,2.0,2.0,67,0.00,,,0.00,WeatherCatV1.20B785,2013-08-22 16:45:00,
2013-08-22 11:50:00,85.3,72.6,30.09,SSW,196,0.0,2.0,66,0.00,,,0.00,WeatherCatV1.20B785,2013-08-22 16:50:00,
2013-08-22 11:55:00,85.7,73.4,30.09,SSW,194,1.0,3.0,67,0.00,,,0.00,WeatherCatV1.20B785,2013-08-22 16:55:00,
2013-08-22 12:00:00,85.9,72.3,30.09,SSW,205,1.0,3.0,64,0.00,,,0.00,WeatherCatV1.20B785,2013-08-22 17:00:00,
2013-08-22 12:05:00,86.1,72.0,30.09,SSW,205,2.0,2.0,63,0.00,,,0.00,WeatherCatV1.20B785,2013-08-22 17:05:00,
2013-08-22 12:10:00,86.2,72.6,30.09,WNW,283,2.0,2.0,64,0.00,,,0.00,WeatherCatV1.20B785,2013-08-22 17:10:00,
2013-08-22 12:15:00,86.4,72.3,30.08,WNW,288,1.0,2.0,63,0.00,,,0.00,WeatherCatV1.20B785,2013-08-22 17:15:00,
2013-08-22 12:20:00,86.7,73.5,30.08,WSW,240,0.0,4.0,65,0.00,,,0.00,WeatherCatV1.20B785,2013-08-22 17:20:00,
2013-08-22 12:25:00,86.7,72.6,30.08,NW,319,0.0,0.0,63,0.00,,,0.00,WeatherCatV1.20B785,2013-08-22 17:25:00,
2013-08-22 12:30:00,87.1,73.9,30.08,SSE,157,3.0,3.0,65,0.00,,,0.00,WeatherCatV1.20B785,2013-08-22 17:30:00,
2013-08-22 12:35:00,87.2,73.5,30.08,SSW,200,1.0,2.0,64,0.00,,,0.00,WeatherCatV1.20B785,2013-08-22 17:35:00,
2013-08-22 12:40:00,87.3,73.6,30.08,West,263,3.0,4.0,64,0.00,,,0.00,WeatherCatV1.20B785,2013-08-22 17:40:00,
2013-08-22 12:45:00,87.4,73.7,30.08,North,355,2.0,2.0,64,0.00,,,0.00,WeatherCatV1.20B785,2013-08-22 17:45:00,
2013-08-22 12:50:00,87.5,72.8,30.07,SSW,205,2.0,3.0,62,0.00,,,0.00,WeatherCatV1.20B785,2013-08-22 17:50:00,
2013-08-22 12:55:00,87.5,71.9,30.07,West,265,2.0,5.0,60,0.00,,,0.00,WeatherCatV1.20B785,2013-08-22 17:55:00,
2013-08-22 13:00:00,87.5,71.9,30.07,West,265,0.0,1.0,60,0.00,,,0.00,WeatherCatV1.20B785,2013-08-22 18:00:00,
2013-08-22 13:05:00,87.6,72.4,30.07,SSW,211,1.0,1.0,61,0.00,,,0.00,WeatherCatV1.20B785,2013-08-22 18:05:00,
2013-08-22 13:10:00,87.7,72.1,30.07,SW,222,1.0,6.0,60,0.00,,,0.00,WeatherCatV1.20B785,2013-08-22 18:10:00,
2013-08-22 13:15:00,87.9,73.7,30.07,SSW,207,2.0,2.0,63,0.00,,,0.00,WeatherCatV1.20B785,2013-08-22 18:15:00,
2013-08-22 13:20:00,87.9,74.2,30.07,WSW,251,2.0,2.0,64,0.00,,,0.00,WeatherCatV1.20B785,2013-08-22 18:20:00,
2013-08-22 13:25:00,87.7,71.1,30.07,NNW,340,0.0,2.0,58,0.00,,,0.00,WeatherCatV1.20B785,2013-08-22 18:25:00,
2013-08-22 13:30:00,87.8,71.2,30.07,SSW,201,0.0,4.0,58,0.00,,,0.00,WeatherCatV1.20B785,2013-08-22 18:30:00,
2013-08-22 13:35:00,87.9,70.7,30.07,NW,306,3.0,5.0,57,0.00,,,0.00,WeatherCatV1.20B785,2013-08-22 18:35:00,
2013-08-22 13:40:00,87.8,70.6,30.07,North,9,0.0,3.0,57,0.00,,,0.00,WeatherCatV1.20B785,2013-08-22 18:40:00,
2013-08-22 13:45:00,87.7,71.1,30.07,NE,50,0.0,2.0,58,0.00,,,0.00,WeatherCatV1.20B785,2013-08-22 18:45:00,
2013-08-22 13:50:00,87.7,72.6,30.06,SSE,157,0.0,2.0,61,0.00,,,0.00,WeatherCatV1.20B785,2013-08-22 18:50:00,
2013-08-22 13:55:00,87.5,70.9,30.06,ESE,104,0.0,1.0,58,0.00,,,0.00,WeatherCatV1.20B785,2013-08-22 18:55:00,
2013-08-22 14:00:00,87.5,70.3,30.06,ESE,104,0.0,1.0,57,0.00,,,0.00,WeatherCatV1.20B785,2013-08-22 19:00:00,
2013-08-22 14:05:00,88.0,73.8,30.06,NW,314,0.0,1.0,63,0.00,,,0.00,WeatherCatV1.20B785,2013-08-22 19:05:00,
2013-08-22 14:10:00,88.1,70.4,30.06,West,259,0.0,1.0,56,0.00,,,0.00,WeatherCatV1.20B785,2013-08-22 19:10:00,
2013-08-22 14:15:00,88.4,71.7,30.06,SW,224,0.0,3.0,58,0.00,,,0.00,WeatherCatV1.20B785,2013-08-22 19:15:00,
2013-08-22 14:20:00,88.8,71.6,30.06,North,355,2.0,3.0,57,0.00,,,0.00,WeatherCatV1.20B785,2013-08-22 19:20:00,
2013-08-22 14:25:00,88.7,70.9,30.06,NW,325,1.0,1.0,56,0.00,,,0.00,WeatherCatV1.20B785,2013-08-22 19:25:00,
2013-08-22 14:30:00,88.6,69.8,30.06,North,355,2.0,3.0,54,0.00,,,0.00,WeatherCatV1.20B785,2013-08-22 19:30:00,
2013-08-22 14:35:00,88.5,69.7,30.06,North,0,1.0,3.0,54,0.00,,,0.00,WeatherCatV1.20B785,2013-08-22 19:35:00,
2013-08-22 14:40:00,88.3,69.5,30.05,North,0,0.0,2.0,54,0.00,,,0.00,WeatherCatV1.20B785,2013-08-22 19:40:00,
2013-08-22 14:45:00,88.5,70.2,30.05,NNW,345,2.0,3.0,55,0.00,,,0.00,WeatherCatV1.20B785,2013-08-22 19:45:00,
2013-08-22 14:51:00,88.5,71.3,30.05,NW,317,0.0,1.0,57,0.00,,,0.00,WeatherCatV1.20B785,2013-08-22 19:51:00,
2013-08-22 14:56:00,88.6,69.8,30.05,WNW,284,0.0,2.0,54,0.00,,,0.00,WeatherCatV1.20B785,2013-08-22 19:56:00,
2013-08-22 15:01:00,88.7,71.5,30.05,WSW,254,1.0,4.0,57,0.00,,,0.00,WeatherCatV1.20B785,2013-08-22 20:01:00,
2013-08-22 15:06:00,89.1,71.8,30.05,WSW,254,0.0,0.0,57,0.00,,,0.00,WeatherCatV1.20B785,2013-08-22 20:06:00,
2013-08-22 15:11:00,89.1,69.7,30.05,ESE,113,2.0,4.0,53,0.00,,,0.00,WeatherCatV1.20B785,2013-08-22 20:11:00,
2013-08-22 15:16:00,88.9,68.4,30.05,ENE,70,0.0,3.0,51,0.00,,,0.00,WeatherCatV1.20B785,2013-08-22 20:16:00,
2013-08-22 15:21:00,88.6,67.5,30.05,ESE,122,0.0,1.0,50,0.00,,,0.00,WeatherCatV1.20B785,2013-08-22 20:21:00,
2013-08-22 15:26:00,88.9,70.6,30.05,SSW,198,1.0,2.0,55,0.00,,,0.00,WeatherCatV1.20B785,2013-08-22 20:26:00,
2013-08-22 15:31:00,89.1,70.2,30.05,South,184,0.0,1.0,54,0.00,,,0.00,WeatherCatV1.20B785,2013-08-22 20:31:00,
2013-08-22 15:36:00,89.5,73.2,30.04,South,184,0.0,1.0,59,0.00,,,0.00,WeatherCatV1.20B785,2013-08-22 20:36:00,
2013-08-22 15:41:00,89.8,71.4,30.04,ENE,76,1.0,5.0,55,0.00,,,0.00,WeatherCatV1.20B785,2013-08-22 20:41:00,
2013-08-22 15:46:00,89.7,71.3,30.04,SE,139,1.0,1.0,55,0.00,,,0.00,WeatherCatV1.20B785,2013-08-22 20:46:00,
2013-08-22 15:51:00,89.3,69.9,30.04,East,95,2.0,2.0,53,0.00,,,0.00,WeatherCatV1.20B785,2013-08-22 20:51:00,
2013-08-22 15:56:00,89.2,70.3,30.04,ENE,74,1.0,3.0,54,0.00,,,0.00,WeatherCatV1.20B785,2013-08-22 20:56:00,
2013-08-22 16:01:00,89.1,69.7,30.04,NE,44,0.0,3.0,53,0.00,,,0.00,WeatherCatV1.20B785,2013-08-22 21:01:00,
2013-08-22 16:06:00,88.8,69.4,30.03,ESE,105,0.0,1.0,53,0.00,,,0.00,WeatherCatV1.20B785,2013-08-22 21:06:00,
2013-08-22 16:11:00,89.0,70.2,30.03,NNW,342,1.0,2.0,54,0.00,,,0.00,WeatherCatV1.20B785,2013-08-22 21:11:00,
2013-08-22 16:16:00,89.1,71.3,30.03,NW,326,0.0,3.0,56,0.00,,,0.00,WeatherCatV1.20B785,2013-08-22 21:16:00,
2013-08-22 16:21:00,89.0,71.2,30.03,North,355,0.0,3.0,56,0.00,,,0.00,WeatherCatV1.20B785,2013-08-22 21:21:00,
2013-08-22 16:26:00,88.7,69.3,30.04,NNW,348,0.0,1.0,53,0.00,,,0.00,WeatherCatV1.20B785,2013-08-22 21:26:00,
2013-08-22 16:31:00,88.8,73.6,30.03,NNW,348,0.0,0.0,61,0.00,,,0.00,WeatherCatV1.20B785,2013-08-22 21:31:00,
2013-08-22 16:36:00,88.8,73.1,30.03,NNW,348,0.0,1.0,60,0.00,,,0.00,WeatherCatV1.20B785,2013-08-22 21:36:00,
2013-08-22 16:41:00,88.7,74.0,30.03,NNW,348,0.0,0.0,62,0.00,,,0.00,WeatherCatV1.20B785,2013-08-22 21:41:00,
2013-08-22 16:46:00,88.5,73.3,30.03,NNW,348,0.0,0.0,61,0.00,,,0.00,WeatherCatV1.20B785,2013-08-22 21:46:00,
2013-08-22 16:51:00,88.3,74.5,30.03,NNW,348,0.0,0.0,64,0.00,,,0.00,WeatherCatV1.20B785,2013-08-22 21:51:00,
2013-08-22 16:56:00,88.0,74.3,30.03,NNW,331,0.0,2.0,64,0.00,,,0.00,WeatherCatV1.20B785,2013-08-22 21:56:00,
2013-08-22 17:01:00,87.5,72.8,30.03,NNW,331,1.0,1.0,62,0.00,,,0.00,WeatherCatV1.20B785,2013-08-22 22:01:00,
2013-08-22 17:06:00,87.0,72.8,30.03,NNW,329,0.0,1.0,63,0.00,,,0.00,WeatherCatV1.20B785,2013-08-22 22:06:00,
2013-08-22 17:11:00,86.7,72.6,30.03,NNE,22,0.0,1.0,63,0.00,,,0.00,WeatherCatV1.20B785,2013-08-22 22:11:00,
2013-08-22 17:16:00,86.6,73.8,30.03,NNE,22,0.0,0.0,66,0.00,,,0.00,WeatherCatV1.20B785,2013-08-22 22:16:00,
2013-08-22 17:21:00,86.5,75.1,30.03,NNE,22,0.0,0.0,69,0.00,,,0.00,WeatherCatV1.20B785,2013-08-22 22:21:00,
2013-08-22 17:26:00,86.2,73.5,30.03,NE,36,1.0,1.0,66,0.00,,,0.00,WeatherCatV1.20B785,2013-08-22 22:26:00,
2013-08-22 17:31:00,85.8,73.1,30.03,NE,44,0.0,2.0,66,0.00,,,0.00,WeatherCatV1.20B785,2013-08-22 22:31:00,
2013-08-22 17:36:00,85.5,73.3,30.02,East,82,0.0,0.0,67,0.00,,,0.00,WeatherCatV1.20B785,2013-08-22 22:36:00,
2013-08-22 17:41:00,85.4,72.3,30.02,East,81,2.0,2.0,65,0.00,,,0.00,WeatherCatV1.20B785,2013-08-22 22:41:00,
2013-08-22 17:46:00,85.3,73.1,30.02,East,81,0.0,0.0,67,0.00,,,0.00,WeatherCatV1.20B785,2013-08-22 22:46:00,
2013-08-22 17:51:00,85.2,73.0,30.03,East,81,0.0,0.0,67,0.00,,,0.00,WeatherCatV1.20B785,2013-08-22 22:51:00,
2013-08-22 17:56:00,85.3,72.6,30.02,East,81,0.0,1.0,66,0.00,,,0.00,WeatherCatV1.20B785,2013-08-22 22:56:00,
2013-08-22 18:01:00,85.3,73.1,30.02,East,81,0.0,0.0,67,0.00,,,0.00,WeatherCatV1.20B785,2013-08-22 23:01:00,
2013-08-22 18:06:00,85.4,72.7,30.02,East,82,0.0,0.0,66,0.00,,,0.00,WeatherCatV1.20B785,2013-08-22 23:06:00,
2013-08-22 18:11:00,85.5,74.1,30.02,East,82,0.0,1.0,69,0.00,,,0.00,WeatherCatV1.20B785,2013-08-22 23:11:00,
2013-08-22 18:16:00,85.6,74.7,30.02,East,82,0.0,0.0,70,0.00,,,0.00,WeatherCatV1.20B785,2013-08-22 23:16:00,
2013-08-22 18:21:00,85.6,74.7,30.02,East,82,0.0,0.0,70,0.00,,,0.00,WeatherCatV1.20B785,2013-08-22 23:21:00,
2013-08-22 18:26:00,85.5,74.1,30.02,East,82,0.0,0.0,69,0.00,,,0.00,WeatherCatV1.20B785,2013-08-22 23:26:00,
2013-08-22 18:31:00,85.3,74.8,30.02,East,82,0.0,0.0,71,0.00,,,0.00,WeatherCatV1.20B785,2013-08-22 23:31:00,
2013-08-22 18:36:00,85.1,74.6,30.02,East,82,0.0,0.0,71,0.00,,,0.00,WeatherCatV1.20B785,2013-08-22 23:36:00,
2013-08-22 18:41:00,84.8,74.3,30.02,East,82,0.0,0.0,71,0.00,,,0.00,WeatherCatV1.20B785,2013-08-22 23:41:00,
2013-08-22 18:46:00,84.6,73.7,30.01,East,82,0.0,0.0,70,0.00,,,0.00,WeatherCatV1.20B785,2013-08-22 23:46:00,
2013-08-22 18:51:00,84.3,73.4,30.01,East,82,0.0,0.0,70,0.00,,,0.00,WeatherCatV1.20B785,2013-08-22 23:51:00,
2013-08-22 18:56:00,84.0,74.4,30.01,East,82,0.0,0.0,73,0.00,,,0.00,WeatherCatV1.20B785,2013-08-22 23:56:00,
2013-08-22 19:01:00,83.5,74.7,30.01,East,82,0.0,0.0,75,0.00,,,0.00,WeatherCatV1.20B785,2013-08-23 00:01:00,
2013-08-22 19:06:00,83.0,73.8,30.01,East,82,0.0,0.0,74,0.00,,,0.00,WeatherCatV1.20B785,2013-08-23 00:06:00,
2013-08-22 19:11:00,82.8,73.6,30.01,East,82,0.0,0.0,74,0.00,,,0.00,WeatherCatV1.20B785,2013-08-23 00:11:00,
2013-08-22 19:16:00,82.5,73.8,30.01,East,81,0.0,0.0,75,0.00,,,0.00,WeatherCatV1.20B785,2013-08-23 00:16:00,
2013-08-22 19:21:00,82.1,74.2,30.01,East,82,0.0,0.0,77,0.00,,,0.00,WeatherCatV1.20B785,2013-08-23 00:21:00,
2013-08-22 19:26:00,82.0,74.8,30.01,East,81,0.0,0.0,79,0.00,,,0.00,WeatherCatV1.20B785,2013-08-23 00:26:00,
2013-08-22 19:31:00,81.8,74.2,30.01,East,81,0.0,0.0,78,0.00,,,0.00,WeatherCatV1.20B785,2013-08-23 00:31:00,
2013-08-22 19:36:00,81.4,74.2,30.01,East,82,0.0,0.0,79,0.00,,,0.00,WeatherCatV1.20B785,2013-08-23 00:36:00,
2013-08-22 19:41:00,81.0,74.2,30.01,East,81,0.0,0.0,80,0.00,,,0.00,WeatherCatV1.20B785,2013-08-23 00:41:00,
2013-08-22 19:46:00,80.5,73.7,30.01,East,82,0.0,0.0,80,0.00,,,0.00,WeatherCatV1.20B785,2013-08-23 00:46:00,
2013-08-22 19:51:00,80.0,73.3,30.01,East,81,0.0,0.0,80,0.00,,,0.00,WeatherCatV1.20B785,2013-08-23 00:51:00,
2013-08-22 19:56:00,79.4,73.0,30.01,East,82,0.0,0.0,81,0.00,,,0.00,WeatherCatV1.20B785,2013-08-23 00:56:00,
2013-08-22 20:01:00,79.0,72.7,30.02,East,82,0.0,0.0,81,0.00,,,0.00,WeatherCatV1.20B785,2013-08-23 01:01:00,
2013-08-22 20:06:00,78.5,72.5,30.02,East,82,0.0,0.0,82,0.00,,,0.00,WeatherCatV1.20B785,2013-08-23 01:06:00,
2013-08-22 20:11:00,78.0,72.4,30.02,East,81,0.0,0.0,83,0.00,,,0.00,WeatherCatV1.20B785,2013-08-23 01:11:00,
2013-08-22 20:16:00,77.6,72.4,30.02,East,82,0.0,0.0,84,0.00,,,0.00,WeatherCatV1.20B785,2013-08-23 01:16:00,
2013-08-22 20:21:00,77.1,71.9,30.02,East,82,0.0,0.0,84,0.00,,,0.00,WeatherCatV1.20B785,2013-08-23 01:21:00,
2013-08-22 20:26:00,76.7,71.8,30.02,East,81,0.0,0.0,85,0.00,,,0.00,WeatherCatV1.20B785,2013-08-23 01:26:00,
2013-08-22 20:31:00,76.2,71.3,30.02,East,81,0.0,0.0,85,0.00,,,0.00,WeatherCatV1.20B785,2013-08-23 01:31:00,
2013-08-22 20:36:00,75.9,71.4,30.02,East,81,0.0,0.0,86,0.00,,,0.00,WeatherCatV1.20B785,2013-08-23 01:36:00,
2013-08-22 20:41:00,75.6,71.4,30.02,East,81,0.0,0.0,87,0.00,,,0.00,WeatherCatV1.20B785,2013-08-23 01:41:00,
2013-08-22 20:46:00,75.2,71.1,30.02,East,82,0.0,0.0,87,0.00,,,0.00,WeatherCatV1.20B785,2013-08-23 01:46:00,
2013-08-22 20:51:00,74.9,70.8,30.03,East,82,0.0,0.0,87,0.00,,,0.00,WeatherCatV1.20B785,2013-08-23 01:51:00,
2013-08-22 20:56:00,74.5,70.7,30.03,East,82,0.0,0.0,88,0.00,,,0.00,WeatherCatV1.20B785,2013-08-23 01:56:00,
2013-08-22 21:01:00,74.2,70.7,30.03,East,81,0.0,0.0,89,0.00,,,0.00,WeatherCatV1.20B785,2013-08-23 02:01:00,
2013-08-22 21:06:00,73.8,70.3,30.03,East,82,0.0,0.0,89,0.00,,,0.00,WeatherCatV1.20B785,2013-08-23 02:06:00,
2013-08-22 21:11:00,73.5,70.4,30.04,East,81,0.0,0.0,90,0.00,,,0.00,WeatherCatV1.20B785,2013-08-23 02:11:00,
2013-08-22 21:16:00,73.3,70.2,30.04,East,81,0.0,0.0,90,0.00,,,0.00,WeatherCatV1.20B785,2013-08-23 02:16:00,
2013-08-22 21:21:00,73.0,69.9,30.04,East,81,0.0,0.0,90,0.00,,,0.00,WeatherCatV1.20B785,2013-08-23 02:21:00,
2013-08-22 21:26:00,72.8,70.0,30.04,East,82,0.0,0.0,91,0.00,,,0.00,WeatherCatV1.20B785,2013-08-23 02:26:00,
2013-08-22 21:31:00,72.6,69.8,30.04,East,81,0.0,0.0,91,0.00,,,0.00,WeatherCatV1.20B785,2013-08-23 02:31:00,
2013-08-22 21:36:00,72.3,69.5,30.04,East,82,0.0,0.0,91,0.00,,,0.00,WeatherCatV1.20B785,2013-08-23 02:36:00,
2013-08-22 21:41:00,72.1,69.6,30.04,East,81,0.0,0.0,92,0.00,,,0.00,WeatherCatV1.20B785,2013-08-23 02:41:00,
2013-08-22 21:46:00,71.9,69.4,30.04,East,82,0.0,0.0,92,0.00,,,0.00,WeatherCatV1.20B785,2013-08-23 02:46:00,
2013-08-22 21:51:00,71.7,69.2,30.04,East,82,0.0,0.0,92,0.00,,,0.00,WeatherCatV1.20B785,2013-08-23 02:51:00,
2013-08-22 21:56:00,71.5,69.4,30.04,East,81,0.0,0.0,93,0.00,,,0.00,WeatherCatV1.20B785,2013-08-23 02:56:00,
2013-08-22 22:01:00,71.4,69.3,30.04,East,81,0.0,0.0,93,0.00,,,0.00,WeatherCatV1.20B785,2013-08-23 03:01:00,
2013-08-22 22:06:00,71.2,69.1,30.05,East,82,0.0,0.0,93,0.00,,,0.00,WeatherCatV1.20B785,2013-08-23 03:06:00,
2013-08-22 22:11:00,71.0,68.9,30.05,East,81,0.0,0.0,93,0.00,,,0.00,WeatherCatV1.20B785,2013-08-23 03:11:00,
2013-08-22 22:16:00,70.9,69.1,30.05,East,81,0.0,0.0,94,0.00,,,0.00,WeatherCatV1.20B785,2013-08-23 03:16:00,
2013-08-22 22:21:00,70.7,68.9,30.05,East,81,0.0,0.0,94,0.00,,,0.00,WeatherCatV1.20B785,2013-08-23 03:21:00,
2013-08-22 22:26:00,70.6,68.8,30.05,East,81,0.0,0.0,94,0.00,,,0.00,WeatherCatV1.20B785,2013-08-23 03:26:00,
2013-08-22 22:31:00,70.5,68.7,30.05,East,81,0.0,0.0,94,0.00,,,0.00,WeatherCatV1.20B785,2013-08-23 03:31:00,
2013-08-22 22:36:00,70.4,68.6,30.05,East,81,0.0,0.0,94,0.00,,,0.00,WeatherCatV1.20B785,2013-08-23 03:36:00,
2013-08-22 22:41:00,70.3,68.8,30.05,East,81,0.0,0.0,95,0.00,,,0.00,WeatherCatV1.20B785,2013-08-23 03:41:00,
2013-08-22 22:46:00,70.2,68.7,30.05,East,81,0.0,0.0,95,0.00,,,0.00,WeatherCatV1.20B785,2013-08-23 03:46:00,
2013-08-22 22:51:00,70.1,68.6,30.05,East,82,0.0,0.0,95,0.00,,,0.00,WeatherCatV1.20B785,2013-08-23 03:51:00,
2013-08-22 22:56:00,70.0,68.5,30.05,East,81,0.0,0.0,95,0.00,,,0.00,WeatherCatV1.20B785,2013-08-23 03:56:00,
2013-08-22 23:01:00,69.9,68.4,30.05,East,81,0.0,0.0,95,0.00,,,0.00,WeatherCatV1.20B785,2013-08-23 04:01:00,
2013-08-22 23:06:00,69.9,68.4,30.05,East,81,0.0,0.0,95,0.00,,,0.00,WeatherCatV1.20B785,2013-08-23 04:06:00,
2013-08-22 23:11:00,69.8,68.6,30.05,East,81,0.0,0.0,96,0.00,,,0.00,WeatherCatV1.20B785,2013-08-23 04:11:00,
2013-08-22 23:16:00,69.7,68.5,30.05,East,81,0.0,0.0,96,0.00,,,0.00,WeatherCatV1.20B785,2013-08-23 04:16:00,
2013-08-22 23:21:00,69.5,68.3,30.05,East,81,0.0,0.0,96,0.00,,,0.00,WeatherCatV1.20B785,2013-08-23 04:21:00,
2013-08-22 23:26:00,69.5,68.3,30.05,East,81,0.0,0.0,96,0.00,,,0.00,WeatherCatV1.20B785,2013-08-23 04:26:00,
2013-08-22 23:31:00,69.4,68.2,30.05,East,81,0.0,0.0,96,0.00,,,0.00,WeatherCatV1.20B785,2013-08-23 04:31:00,
2013-08-22 23:36:00,69.3,68.1,30.05,East,81,0.0,0.0,96,0.00,,,0.00,WeatherCatV1.20B785,2013-08-23 04:36:00,
2013-08-22 23:41:00,69.2,68.0,30.05,East,82,0.0,0.0,96,0.00,,,0.00,WeatherCatV1.20B785,2013-08-23 04:41:00,
2013-08-22 23:46:00,69.0,67.8,30.05,East,81,0.0,0.0,96,0.00,,,0.00,WeatherCatV1.20B785,2013-08-23 04:46:00,
2013-08-22 23:51:00,68.9,67.7,30.05,East,81,0.0,0.0,96,0.00,,,0.00,WeatherCatV1.20B785,2013-08-23 04:51:00,
2013-08-22 23:56:00,68.8,67.6,30.05,East,81,0.0,0.0,96,0.00,,,0.00,WeatherCatV1.20B785,2013-08-23 04:56:00,